Back to catalog

STARLINK-31282

AliveCommunicationsVLEO
NORAD 59307·PAYLOAD·🇺🇸 United States

Launched Mar 24, 2024 from Cape Canaveral Space Force Station

Loading…

Next Passes (next 24 hours)

TLE

FreshSource: CelesTrak SupGP

Epoch: Sep 14, 2026, 22:43 UTC

1 59307C 24056M   26257.94701389  .00022428  00000+0  81253-3 0  2570
2 59307  42.9994 242.0441 0001226 260.2515 216.1163 15.27560460    19

Track STARLINK-31282 in real time with AllMySat

Download on the App Store